TimeMDT,TemperatureF,Dew PointF,Humidity,Sea Level PressureIn,VisibilityMPH,Wind Direction,Wind SpeedMPH,Gust SpeedMPH,PrecipitationIn,Events,Conditions,WindDirDegrees,DateUTC
12:53 AM,39.0,30.9,73,29.84,10.0,SSE,13.8,-,N/A,,Clear,150,2013-05-22 06:53:00
1:53 AM,39.0,30.9,73,29.82,-9999.0,SSE,12.7,-,N/A,,Clear,150,2013-05-22 07:53:00
2:53 AM,39.0,30.9,73,29.79,-9999.0,SSE,16.1,-,N/A,,Mostly Cloudy,160,2013-05-22 08:53:00
3:53 AM,37.0,30.0,76,29.80,-9999.0,SSE,9.2,-,N/A,,Mostly Cloudy,160,2013-05-22 09:53:00
4:53 AM,35.1,30.0,82,29.81,-9999.0,South,10.4,-,N/A,,Clear,170,2013-05-22 10:53:00
5:53 AM,34.0,28.9,82,29.82,-9999.0,South,6.9,-,N/A,,Clear,190,2013-05-22 11:53:00
6:53 AM,39.9,32.0,73,29.79,-9999.0,SSE,4.6,-,N/A,,Clear,150,2013-05-22 12:53:00
7:53 AM,48.9,34.0,56,29.78,10.0,SSW,6.9,-,N/A,,Clear,200,2013-05-22 13:53:00
8:53 AM,54.0,34.0,47,29.78,10.0,SSW,3.5,-,N/A,,Clear,200,2013-05-22 14:53:00
9:53 AM,57.9,32.0,37,29.75,10.0,Calm,Calm,-,N/A,,Clear,0,2013-05-22 15:53:00
10:53 AM,61.0,33.1,35,29.76,10.0,Variable,4.6,-,N/A,,Clear,0,2013-05-22 16:53:00
11:53 AM,63.0,30.0,29,29.76,10.0,East,4.6,-,N/A,,Clear,100,2013-05-22 17:53:00
12:53 PM,64.9,26.1,23,29.74,10.0,Variable,3.5,-,N/A,,Clear,0,2013-05-22 18:53:00
1:53 PM,64.9,30.9,28,29.73,10.0,East,8.1,-,N/A,,Scattered Clouds,100,2013-05-22 19:53:00
2:53 PM,64.9,36.0,34,29.73,10.0,ESE,18.4,31.1,N/A,,Partly Cloudy,110,2013-05-22 20:53:00
3:53 PM,66.0,33.1,29,29.72,10.0,South,16.1,31.1,N/A,,Scattered Clouds,170,2013-05-22 21:53:00
4:53 PM,64.9,34.0,32,29.75,10.0,SE,20.7,32.2,N/A,,Scattered Clouds,140,2013-05-22 22:53:00
5:53 PM,63.0,33.1,33,29.78,10.0,SE,24.2,32.2,N/A,,Partly Cloudy,140,2013-05-22 23:53:00
6:53 PM,61.0,35.1,38,29.77,10.0,SE,25.3,33.4,0.00,,Mostly Cloudy,130,2013-05-23 00:53:00
7:53 PM,57.0,36.0,45,29.79,10.0,East,11.5,23.0,N/A,,Mostly Cloudy,100,2013-05-23 01:53:00
8:53 PM,51.1,39.0,63,29.79,10.0,East,17.3,-,N/A,,Clear,100,2013-05-23 02:53:00
9:53 PM,48.9,37.9,66,29.81,10.0,ESE,17.3,-,N/A,,Clear,120,2013-05-23 03:53:00
10:53 PM,46.9,37.9,71,29.82,10.0,SE,23.0,32.2,N/A,,Clear,130,2013-05-23 04:53:00
11:53 PM,46.0,39.0,76,29.83,10.0,ESE,17.3,26.5,N/A,,Scattered Clouds,120,2013-05-23 05:53:00